Albert Lea, MN

2:26 AM CST on February 26, 2017 (GMT -0600)
Albert Lea Municipal

Weather History for KAEL - April, 2013

Change the Weather History Date:

Wednesday, April 24, 2013

  Actual Average Record
Temperature  
Mean Temperature 38 °F -  
Max Temperature 51 °F 59 °F 77 °F (1998)
Min Temperature 26 °F 38 °F 26 °F (2013)
Degree Days  
Heating Degree Days 26    
Moisture  
Dew Point 28 °F    
Average Humidity 69    
Maximum Humidity 93    
Minimum Humidity 30    
Precipitation  
Precipitation 0.02 in - - ()
Sea Level Pressure  
Sea Level Pressure 30.02 in    
Wind  
Wind Speed 8 mph (WSW)    
Max Wind Speed 21 mph    
Max Gust Speed 34 mph    
Visibility 10 miles    
Events Rain    
Averages and records for this station are not official NWS values.
T = Trace of Precipitation, MM = Missing Value Source: NWS Daily Summary

Daily Weather History Graph

Daily Weather History Graph

Search for Another Location

Airport or City:

Trip Planner

Search our weather history database for the weather conditions in past years. The results will help you decide how hot, cold, wet, or windy it might be!

Date:

Astronomy

Apr. 24, 2013 Rise Set
Actual Time 6:15 AM CDT 8:08 PM CDT
Civil Twilight 5:45 AM CDT 8:38 PM CDT
Nautical Twilight 5:07 AM CDT 9:16 PM CDT
Astronomical Twilight 4:26 AM CDT 9:57 PM CDT
Moon 7:11 PM CDT (4/24) 5:22 AM CDT (4/24)
Length of Visible Light 14h 53m
Length of Day
13h 52m
Waxing Gibbous, 98% of the Moon is Illuminated
Apr 24
Waxing Gibbous
Apr 25
Full
May 2
Last Quarter
May 9
New
May 17
First Quarter

Hourly Weather History & Observations

Time (CDT) Temp. Windchill Dew Point Humidity Pressure Visibility Wind Dir Wind Speed Gust Speed Precip Events Conditions
12:14 AM 32.0 °F 25.6 °F 26.6 °F 80% 30.07 in 10.0 mi WNW 6.9 mph - N/A   Clear
12:33 AM 30.2 °F 25.4 °F 26.6 °F 86% 30.07 in 10.0 mi WNW 4.6 mph - N/A   Clear
12:53 AM 30.2 °F 24.3 °F 26.6 °F 86% 30.07 in 10.0 mi WNW 5.8 mph - N/A   Clear
1:14 AM 30.2 °F 24.3 °F 26.6 °F 86% 30.07 in 10.0 mi WNW 5.8 mph - N/A   Clear
1:33 AM 30.2 °F 24.3 °F 26.6 °F 86% 30.07 in 10.0 mi WNW 5.8 mph - N/A   Clear
1:53 AM 30.2 °F 24.3 °F 26.6 °F 86% 30.07 in 10.0 mi West 5.8 mph - N/A   Clear
2:14 AM 28.4 °F 23.3 °F 24.8 °F 86% 30.08 in 10.0 mi West 4.6 mph - N/A   Clear
2:33 AM 28.4 °F 24.6 °F 24.8 °F 86% 30.07 in 10.0 mi West 3.5 mph - N/A   Clear
2:53 AM 28.4 °F 24.6 °F 24.8 °F 86% 30.07 in 10.0 mi West 3.5 mph - N/A   Clear
3:14 AM 28.4 °F 24.6 °F 24.8 °F 86% 30.06 in 10.0 mi West 3.5 mph - N/A   Clear
3:33 AM 28.4 °F 24.6 °F 24.8 °F 86% 30.06 in 10.0 mi West 3.5 mph - N/A   Clear
3:53 AM 28.4 °F 24.6 °F 24.8 °F 86% 30.06 in 10.0 mi West 3.5 mph - N/A   Clear
4:14 AM 28.4 °F 23.3 °F 24.8 °F 86% 30.06 in 10.0 mi West 4.6 mph - N/A   Clear
4:33 AM 28.4 °F 23.3 °F 23.0 °F 80% 30.06 in 10.0 mi West 4.6 mph - N/A   Clear
5:14 AM 26.6 °F - 24.8 °F 93% 30.06 in 10.0 mi Calm Calm - N/A   Clear
5:33 AM 26.6 °F - 24.8 °F 93% 30.06 in 7.0 mi Calm Calm - N/A   Clear
5:53 AM 28.4 °F 24.6 °F 24.8 °F 86% 30.05 in 7.0 mi SW 3.5 mph - N/A   Clear
6:14 AM 28.4 °F 23.3 °F 24.8 °F 86% 30.05 in 7.0 mi WSW 4.6 mph - N/A   Clear
6:33 AM 28.4 °F 23.3 °F 24.8 °F 86% 30.05 in 7.0 mi SW 4.6 mph - N/A   Clear
6:53 AM 28.4 °F 24.6 °F 24.8 °F 86% 30.05 in 7.0 mi SW 3.5 mph - N/A   Clear
7:14 AM 30.2 °F 25.4 °F 24.8 °F 80% 30.05 in 7.0 mi SW 4.6 mph - N/A   Clear
7:33 AM 30.2 °F 26.7 °F 24.8 °F 80% 30.06 in 10.0 mi WSW 3.5 mph - N/A   Clear
7:53 AM 32.0 °F 27.5 °F 26.6 °F 80% 30.05 in 10.0 mi WSW 4.6 mph - N/A   Clear
8:14 AM 33.8 °F 28.6 °F 26.6 °F 75% 30.05 in 10.0 mi WSW 5.8 mph - N/A   Clear
8:33 AM 35.6 °F 31.7 °F 26.6 °F 70% 30.05 in 10.0 mi WSW 4.6 mph - N/A   Clear
8:53 AM 35.6 °F 30.7 °F 26.6 °F 70% 30.05 in 10.0 mi West 5.8 mph - N/A   Clear
9:14 AM 37.4 °F 31.4 °F 26.6 °F 65% 30.05 in 10.0 mi WSW 8.1 mph - N/A   Clear
9:33 AM 39.2 °F 35.9 °F 26.6 °F 61% 30.05 in 10.0 mi WSW 4.6 mph - N/A   Clear
9:53 AM 39.2 °F 34.2 °F 26.6 °F 61% 30.05 in 10.0 mi WSW 6.9 mph - N/A   Clear
10:14 AM 41.0 °F 37.1 °F 26.6 °F 57% 30.04 in 10.0 mi WSW 5.8 mph - N/A   Clear
10:33 AM 41.0 °F 35.2 °F 28.4 °F 61% 30.04 in 10.0 mi WSW 9.2 mph - N/A   Clear
10:53 AM 42.8 °F 38.0 °F 28.4 °F 57% 30.04 in 10.0 mi West 8.1 mph - N/A   Clear
11:14 AM 44.6 °F 39.2 °F 28.4 °F 53% 30.04 in 10.0 mi West 10.4 mph - N/A   Clear
11:33 AM 44.6 °F 39.2 °F 28.4 °F 53% 30.04 in 10.0 mi WSW 10.4 mph 16.1 mph N/A   Clear
11:53 AM 46.4 °F 41.1 °F 28.4 °F 50% 30.03 in 10.0 mi West 11.5 mph 19.6 mph N/A   Clear
12:13 PM 46.4 °F 41.5 °F 30.2 °F 53% 30.03 in 10.0 mi WSW 10.4 mph 17.3 mph N/A   Clear
12:33 PM 46.4 °F 41.9 °F 28.4 °F 50% 30.02 in 10.0 mi WSW 9.2 mph 18.4 mph N/A   Clear
12:53 PM 48.2 °F - 26.6 °F 43% 30.02 in 10.0 mi WSW 13.8 mph 20.7 mph N/A   Clear
1:13 PM 48.2 °F - 26.6 °F 43% 30.01 in 10.0 mi West 15.0 mph 18.4 mph N/A   Scattered Clouds
1:34 PM 48.2 °F - 28.4 °F 46% 30.00 in 10.0 mi WSW 13.8 mph 23.0 mph N/A   Scattered Clouds
1:53 PM 48.2 °F - 28.4 °F 46% 30.00 in 10.0 mi WSW 15.0 mph 23.0 mph N/A   Scattered Clouds
2:14 PM 48.2 °F - 26.6 °F 43% 30.00 in 10.0 mi SW 16.1 mph 27.6 mph N/A   Scattered Clouds
2:33 PM 50.0 °F - 24.8 °F 37% 29.99 in 10.0 mi SW 15.0 mph 27.6 mph N/A   Scattered Clouds
2:53 PM 50.0 °F - 23.0 °F 35% 29.98 in 10.0 mi WSW 17.3 mph 27.6 mph N/A   Scattered Clouds
3:14 PM 51.8 °F - 24.8 °F 35% 29.98 in 10.0 mi SW 17.3 mph 26.5 mph N/A   Clear
3:33 PM 51.8 °F - 23.0 °F 33% 29.97 in 10.0 mi SW 20.7 mph 28.8 mph N/A   Clear
3:53 PM 51.8 °F - 21.2 °F 30% 29.97 in 10.0 mi SW 18.4 mph 27.6 mph N/A   Clear
4:14 PM 50.0 °F - 23.0 °F 35% 29.96 in 10.0 mi SW 15.0 mph 25.3 mph N/A   Clear
4:33 PM 50.0 °F - 21.2 °F 32% 29.96 in 10.0 mi WSW 19.6 mph 26.5 mph N/A   Scattered Clouds
4:53 PM 50.0 °F - 21.2 °F 32% 29.95 in 10.0 mi SW 16.1 mph 25.3 mph N/A   Scattered Clouds
5:14 PM 50.0 °F - 24.8 °F 37% 29.94 in 10.0 mi SW 18.4 mph 24.2 mph N/A   Mostly Cloudy
5:34 PM 50.0 °F - 26.6 °F 40% 29.93 in 10.0 mi WSW 11.5 mph 25.3 mph N/A   Overcast
5:53 PM 51.8 °F - 28.4 °F 41% 29.90 in 10.0 mi SW 11.5 mph 18.4 mph N/A   Scattered Clouds
6:13 PM 50.0 °F - 30.2 °F 47% 29.90 in 10.0 mi SW 8.1 mph 17.3 mph N/A   Mostly Cloudy
6:33 PM 41.0 °F 32.2 °F 35.6 °F 81% 29.95 in 4.0 mi WNW 18.4 mph 34.5 mph N/A Rain Rain
6:53 PM 39.2 °F 32.5 °F 37.4 °F 93% 29.94 in 7.0 mi WNW 10.4 mph 18.4 mph 0.01 in Rain Light Rain
7:13 PM 39.2 °F 35.0 °F 37.4 °F 93% 29.94 in 10.0 mi West 5.8 mph - 0.01 in   Mostly Cloudy
7:33 PM 39.2 °F 32.5 °F 37.4 °F 93% 29.95 in 10.0 mi West 10.4 mph - 0.01 in   Overcast
7:53 PM 39.2 °F 32.0 °F 37.4 °F 93% 29.95 in 10.0 mi West 11.5 mph 17.3 mph N/A   Overcast
8:13 PM 39.2 °F 32.5 °F 37.4 °F 93% 29.96 in 10.0 mi West 10.4 mph 16.1 mph N/A   Overcast
8:33 PM 39.2 °F 31.2 °F 33.8 °F 81% 29.97 in 10.0 mi West 13.8 mph 20.7 mph N/A   Mostly Cloudy
8:53 PM 37.4 °F 30.3 °F 33.8 °F 87% 29.98 in 10.0 mi West 10.4 mph 17.3 mph N/A   Scattered Clouds
9:53 PM 37.4 °F 30.8 °F 33.8 °F 87% 30.01 in 10.0 mi West 9.2 mph - N/A   Overcast
10:14 PM 37.4 °F 29.8 °F 33.8 °F 87% 30.02 in 10.0 mi West 11.5 mph 17.3 mph N/A   Overcast
10:33 PM 37.4 °F 30.3 °F 33.8 °F 87% 30.02 in 10.0 mi West 10.4 mph 18.4 mph N/A   Mostly Cloudy
10:53 PM 37.4 °F 32.1 °F 33.8 °F 87% 30.02 in 10.0 mi West 6.9 mph - N/A   Overcast
11:14 PM 37.4 °F 30.3 °F 33.8 °F 87% 30.01 in 10.0 mi West 10.4 mph - N/A   Light Drizzle
11:33 PM 37.4 °F 30.3 °F 33.8 °F 87% 30.01 in 7.0 mi West 10.4 mph - N/A Rain Light Rain
11:53 PM 37.4 °F 29.3 °F 33.8 °F 87% 30.02 in 10.0 mi West 12.7 mph 23.0 mph N/A   Overcast